Simultaneous Nadir Overpasses (SNOs) Predictions

Prediction of SNOs between LANDSAT-8 and NOAA-19 Satellite Orbit:

Table of predicted SNOs for the next 14.0 days since TLE Epoch: 2/23/2018
Index Date (LANDSAT-8) Time (LANDSAT-8) Lat,Lon (LANDSAT-8) SZA (LANDSAT-8 ) Date (NOAA-19) Time (NOAA-19) Lat,Lon (NOAA-19) SZA (NOAA-19 ) Distance(km) Time Diff (sec)
1 02/25/2018 10:19:46 77.23, 37.28 86.34 02/25/2018 10:19:39 77.22, 37.37 86.33 2.48 7
2 02/27/2018 15:53:29 -77.26, 133.98 94.46 02/27/2018 15:53:20 -77.25, 133.88 94.48 2.98 9
3 02/27/2018 16:43:04 76.83, -60.01 85.05 02/27/2018 16:44:09 76.79, -56.82 85.14 80.96 65
4 03/01/2018 21:27:11 77.27,-129.44 84.70 03/01/2018 21:26:59 77.26,-129.50 84.69 1.76 12
5 03/01/2018 22:16:44 -77.01, 37.21 95.60 03/01/2018 22:17:53 -76.98, 39.04 95.56 45.96 69
6 03/04/2018 03:00:55 -77.26, -32.92 96.16 03/04/2018 03:00:38 -77.26, -32.84 96.16 1.95 17
7 03/04/2018 03:50:24 77.10, 134.11 83.65 03/04/2018 03:51:35 77.09, 135.18 83.70 26.46 71
8 03/06/2018 08:34:36 77.29, 63.80 83.03 03/06/2018 08:34:18 77.27, 63.75 83.00 2.85 18
9 03/06/2018 09:24:05 -77.22,-128.83 97.07 03/06/2018 09:25:17 -77.24,-128.86 97.04 2.06 72
10 03/08/2018 14:08:20 -77.28, 160.32 97.85 03/08/2018 14:07:56 -77.28, 160.36 97.85 0.95 24




NCC Satellite Simultaneous Nadir Overpasses (SNOs) Prediction Service
